Погода в Озерках

Россия / Ульяновская область     54°16′56″N   49°04′56″E
темп.,
°C
ветер,
м/с
пор.,
м/с
влажн.,
%
обл.,
%
осадки,
мм/ч
давл.,
гПа
погр.,
м
18 апреля, вс
вс1801:00+8всв512560 0.0 1020254
04:00+6св410640 0.0 1021192
07:00+6всв4106324 0.0 1020255
10:00+11всв57445 0.0 1020650
13:00+14св66351 0.0 10201182
16:00+15всв67345 0.0 10201492
19:00+12всв594735 0.0 1020288
22:00+8всв7146898 0.0 1022551
19 апреля, пн
пн1901:00+6всв61264100 0.0 1023472
04:00+4всв61362100 0.0 1023441
07:00+3всв7136387 0.0 1024572
10:00+5всв81057100 0.0 1025861
13:00+8всв91054100 0.0 10251364
16:00+7в81057100 0.0 10251287
19:00+7в61162100 0.0 10261288
22:00+6в51060100 0.0 1027554
20 апреля, вт
вт2001:00+5в6125583 0.0 1027500
04:00+3в613595 0.0 1029395
07:00+2вюв612542 0.0 1030566
10:00+5вюв810410 0.0 1030894
13:00+9юв79330 0.0 10301382
16:00+10вюв79280 0.0 10291493
19:00+8вюв6113796 0.0 1028510
22:00+5вюв61544100 0.0 1028490
21 апреля, ср
ср2101:00+4юв71648100 0.0 1027632
04:00+3юв7165168 0.0 1026604
07:00+2юв91751100 0.0 1026696
10:00+5юв91743100 0.0 1025812
13:00+7ююв81440100 0.0 10241023
16:00+7ююв81546100 0.1 10251144
19:00+5ю81576100 0.1 1025895
22:00+4ююв81694100 1.7 1025854
22 апреля, чт
чт2201:00+4ююв81495100 1.8 1025711
04:00+4ююв71392100 1.9 1026564
07:00+4ююв61194100 0.1 1026496
10:00+5ююв61193100 0.3 1027477
13:00+8ю678295 0.0 1028566
16:00+8ююв688299 0.1 1028641
19:00+7ююв5985100 0.0 1028504
22:00+6ююв5985100 0.0 1029331